TimeEDT,TemperatureF,Dew PointF,Humidity,Sea Level PressureIn,VisibilityMPH,Wind Direction,Wind SpeedMPH,Gust SpeedMPH,PrecipitationIn,Events,Conditions,WindDirDegrees,DateUTC
12:58 AM,71.8,70.5,96,30.06,10.0,SW,9.2,-,N/A,,Clear,220,2013-08-27 04:58:00
1:58 AM,70.7,70.2,98,30.05,10.0,SW,6.9,-,N/A,,Clear,230,2013-08-27 05:58:00
2:58 AM,70.0,70.0,100,30.03,10.0,SW,8.1,-,N/A,,Clear,230,2013-08-27 06:58:00
3:58 AM,70.7,70.5,99,30.03,10.0,SW,8.1,-,N/A,,Clear,230,2013-08-27 07:58:00
4:58 AM,71.8,70.9,97,30.02,10.0,WSW,8.1,-,N/A,,Clear,240,2013-08-27 08:58:00
5:58 AM,72.7,70.9,94,30.01,10.0,WSW,9.2,-,N/A,,Clear,240,2013-08-27 09:58:00
6:58 AM,71.6,71.2,99,30.02,10.0,WSW,6.9,-,N/A,,Clear,240,2013-08-27 10:58:00
7:58 AM,72.5,72.1,99,30.04,10.0,WSW,9.2,-,N/A,,Clear,240,2013-08-27 11:58:00
8:58 AM,74.5,72.3,93,30.05,10.0,WSW,8.1,-,N/A,,Clear,250,2013-08-27 12:58:00
9:58 AM,78.1,73.0,84,30.04,10.0,West,10.4,-,N/A,,Clear,260,2013-08-27 13:58:00
10:30 AM,78.8,73.4,83,30.02,10.0,West,10.4,-,N/A,,Clear,260,2013-08-27 14:30:00
10:58 AM,79.7,73.6,81,30.02,10.0,West,10.4,-,N/A,,Partly Cloudy,260,2013-08-27 14:58:00
11:58 AM,83.1,74.3,75,30.04,10.0,West,11.5,-,N/A,,Clear,270,2013-08-27 15:58:00
12:58 PM,87.3,75.4,68,30.01,10.0,West,12.7,-,N/A,,Clear,270,2013-08-27 16:58:00
1:58 PM,86.9,75.6,69,30.00,10.0,West,8.1,-,N/A,,Partly Cloudy,270,2013-08-27 17:58:00
2:58 PM,87.4,75.7,68,29.98,10.0,West,11.5,-,N/A,,Partly Cloudy,270,2013-08-27 18:58:00
3:58 PM,90.1,75.9,63,29.96,10.0,West,10.4,-,N/A,,Clear,260,2013-08-27 19:58:00
4:58 PM,90.0,75.4,62,29.94,10.0,WSW,11.5,-,N/A,,Mostly Cloudy,250,2013-08-27 20:58:00
5:58 PM,89.4,73.4,59,29.94,10.0,WSW,15.0,-,N/A,,Mostly Cloudy,240,2013-08-27 21:58:00
6:58 PM,87.3,75.2,67,29.94,10.0,SW,10.4,-,N/A,,Clear,220,2013-08-27 22:58:00
7:58 PM,84.2,74.3,72,29.94,10.0,SW,9.2,-,N/A,,Clear,220,2013-08-27 23:58:00
8:58 PM,79.0,74.3,85,29.94,10.0,SW,9.2,-,N/A,,Clear,220,2013-08-28 00:58:00
9:58 PM,78.3,73.4,85,29.94,10.0,SW,10.4,-,N/A,,Clear,220,2013-08-28 01:58:00
10:58 PM,77.5,72.9,85,29.95,10.0,SW,9.2,-,N/A,,Clear,230,2013-08-28 02:58:00
11:58 PM,76.8,72.0,85,29.93,10.0,SW,10.4,-,N/A,,Clear,230,2013-08-28 03:58:00